Location: Ferchesar
(52.6477°N, 12.4298°E)
Time: 04:19:09
(UTC+01:00)

Explorer 7 - Pass Details

Date: 16 December 2021
Orbit: 483 x 674 km, 50.3° (Epoch: 21 January)

Event Time Altitude Azimuth Distance (km) Brightness Sun altitude
Rises 05:21:07 0° 276° (W) 2,883 - -25.0°
Reaches altitude 10° 05:23:32 10° 271° (W) 1,944 - -24.6°
Maximum altitude 05:27:50 52° 196° (SSW) 718 - -24.0°
Exits shadow 05:28:09 51° 179° (S) 727 7.4 -24.0°
Drops below altitude 10° 05:31:53 10° 120° (ESE) 1,820 10.4 -23.4°
Sets 05:34:04 0° 115° (ESE) 2,679 11.6 -23.1°
